Aeroporto :
LOGIN :

Iscrizione | Disclaimer

   EN    FR    IT 

 










Sommario :    VFR   VFR Marginale   IFR   IFR Intensivo   IFR Molto Intensivo
Visibilità : 
Base nubi : 
>= 8 km
>= 3000ft
5 / 8 km
1000 / 3000 ft
1500m / 5 km
500 / 1000 ft
800 / 1500m
200 / 500 ft
< 800m
< 200 ft
Simboli :   Temporali  Nebbia  Neve Forte  Precipitazioni Forti  Vento > 20 kt
SIGMETs :   Varie  Temporali  Ghiacco  Turbolenza  Onda orograficha  Ceneri Vulcaniche







- Altitudine del aeroporto : 277 ft
- Codice IATA : JER
- Carte del aeroporto


EGJJ - Jersey

ULTIMO METAR :
  • 200820Z 05004KT 9999 -SHRA FEW010 SCT027 BKN034 06/05 Q1013

METARs OBSOLETI :
  • 200750Z 03004KT 360V070 9999 FEW010 BKN034 06/05 Q1013
  • 200720Z 05006KT 9999 FEW013 BKN036 06/05 Q1012
  • 200650Z 06006KT 9999 VCSH FEW014 BKN043 06/05 Q1012
  • 200620Z 07006KT 9999 VCSH FEW009 SCT015 BKN027 06/05 Q1012
  • 200550Z 06007KT 9999 VCSH SCT010 BKN014 06/05 Q1011

TAF TAF EGJJ
Valido dal 20 a 09 ore il 20 a 18 ore UTC


200803Z 2009/2018 03006KT 9999 FEW010 BKN030
TEMPO 2009/2011 7000 -SHRA BKN008
ATIS : +44 1534 498 073
Nessun NOTAM noto per questo aeroporto.



MetMap, La meteo Aeronautica in un colpo d'occhio ! - Copyright ORBIFLY Dicembre 2007 - Disclaimer

ORBIFLY MET'MAP TEAM :

Programmazione e sviluppo : Alexandra Zaïnal
Concezione e sviluppo : Baudouin d'Aumeries
Co-Programmazione e sviluppo : Marc-Olivier Méhu
Supporto tecnico e logistico : Manuel Goepfert
Aiuto per la traduzione : Arnaldo La Scala

Contatto : metmap@orbifly.com




FONTI E CREDITI :

   NOAA